• In Belgien
  • Länderverzeichnis
  • Für 7 Tage
  • Wassertemperatur
  • Satellitenkarten
  • Wetterkarte
  • Widgets
  • user-avatar
    Anmelden

    Stündliche Wetter Aspelt

    Heute, 22 November, Mittwoch

    Zeit Temperatur Niederschläge Wind Luftdruck Luftfeuchtigkeit
    00:00 +5°C° 0 mm 4 m/S 736 mmHg 95%
    01:00 +5°C° 0 mm 4 m/S 736 mmHg 95%
    02:00 +5°C° 0 mm 4 m/S 735 mmHg 94%
    03:00 +5°C° 0 mm 4 m/S 735 mmHg 94%
    04:00 +5°C° 0 mm 4 m/S 735 mmHg 94%
    05:00 +5°C° 0 mm 4 m/S 735 mmHg 94%
    06:00 +5°C° 0 mm 3 m/S 735 mmHg 95%
    07:00 +5°C° 0 mm 4 m/S 735 mmHg 93%
    08:00 +5°C° 0 mm 4 m/S 735 mmHg 91%
    09:00 +5°C° 0 mm 4 m/S 734 mmHg 89%
    10:00 +7°C° 0 mm 4 m/S 734 mmHg 84%
    11:00 +8°C° 0 mm 4 m/S 734 mmHg 80%
    12:00 +10°C° 0 mm 3 m/S 734 mmHg 78%
    13:00 +9°C° 0 mm 3 m/S 734 mmHg 80%
    14:00 +9°C° 0 mm 3 m/S 733 mmHg 82%
    15:00 +8°C° 0 mm 3 m/S 733 mmHg 83%
    16:00 +8°C° 0 mm 3 m/S 732 mmHg 84%
    17:00 +7°C° 0 mm 3 m/S 732 mmHg 85%
    18:00 +5°C° 0 mm 3 m/S 732 mmHg 85%
    19:00 +5°C° 0 mm 3 m/S 731 mmHg 84%
    20:00 +5°C° 0 mm 3 m/S 731 mmHg 83%
    21:00 +5°C° 0 mm 3 m/S 731 mmHg 82%
    22:00 +5°C° 0 mm 4 m/S 731 mmHg 83%
    23:00 +5°C° 0 mm 4 m/S 731 mmHg 85%

    Morgen, 23 November, Donnerstag

    Zeit Temperatur Niederschläge Wind Luftdruck Luftfeuchtigkeit
    00:00 +5°C° 0 mm 4 m/S 730 mmHg 87%
    01:00 +6°C° 0 mm 4 m/S 730 mmHg 87%
    02:00 +6°C° 0 mm 4 m/S 730 mmHg 88%
    03:00 +6°C° 0 mm 5 m/S 730 mmHg 88%
    04:00 +6°C° 0 mm 5 m/S 730 mmHg 87%
    05:00 +7°C° 0 mm 5 m/S 730 mmHg 86%
    06:00 +7°C° 0 mm 6 m/S 730 mmHg 84%
    07:00 +8°C° 0 mm 6 m/S 730 mmHg 80%
    08:00 +9°C° 0 mm 7 m/S 731 mmHg 76%
    09:00 +10°C° 0 mm 8 m/S 731 mmHg 73%
    10:00 +11°C° 0 mm 8 m/S 731 mmHg 71%
    11:00 +12°C° 0 mm 8 m/S 731 mmHg 69%
    12:00 +12°C° 0 mm 9 m/S 731 mmHg 68%
    13:00 +12°C° 0 mm 8 m/S 732 mmHg 70%
    14:00 +12°C° 0 mm 7 m/S 732 mmHg 72%
    15:00 +12°C° 0 mm 7 m/S 732 mmHg 75%
    16:00 +11°C° 0,1 mm 6 m/S 733 mmHg 77%
    17:00 +11°C° 0,1 mm 6 m/S 733 mmHg 79%
    18:00 +10°C° 0,1 mm 6 m/S 734 mmHg 81%
    19:00 +10°C° 0,1 mm 5 m/S 734 mmHg 82%
    20:00 +10°C° 0,1 mm 5 m/S 734 mmHg 84%
    21:00 +11°C° 0,1 mm 4 m/S 735 mmHg 86%
    22:00 +11°C° 0,1 mm 4 m/S 735 mmHg 86%
    23:00 +11°C° 0,1 mm 4 m/S 735 mmHg 87%

    übermorgen, 24 November, Freitag

    Zeit Temperatur Niederschläge Wind Luftdruck Luftfeuchtigkeit
    00:00 +10°C° 0,1 mm 4 m/S 735 mmHg 87%
    01:00 +10°C° 0 mm 4 m/S 734 mmHg 87%
    02:00 +10°C° 0 mm 4 m/S 734 mmHg 87%
    03:00 +8°C° 0 mm 5 m/S 733 mmHg 88%
    04:00 +8°C° 0,5 mm 5 m/S 733 mmHg 87%
    05:00 +8°C° 0,5 mm 5 m/S 733 mmHg 87%
    06:00 +9°C° 0,5 mm 6 m/S 733 mmHg 87%
    07:00 +9°C° 0,6 mm 6 m/S 733 mmHg 86%
    08:00 +9°C° 0,6 mm 6 m/S 733 mmHg 85%
    09:00 +10°C° 0,6 mm 7 m/S 733 mmHg 83%
    10:00 +10°C° 0,1 mm 7 m/S 734 mmHg 84%
    11:00 +10°C° 0,1 mm 7 m/S 734 mmHg 84%
    12:00 +10°C° 0,1 mm 6 m/S 734 mmHg 85%
    13:00 +10°C° 0,2 mm 6 m/S 735 mmHg 86%
    14:00 +9°C° 0,2 mm 5 m/S 735 mmHg 86%
    15:00 +10°C° 0,2 mm 4 m/S 736 mmHg 87%
    16:00 +9°C° 0,1 mm 3 m/S 736 mmHg 89%
    17:00 +8°C° 0,1 mm 2 m/S 736 mmHg 90%
    18:00 +7°C° 0,1 mm 2 m/S 737 mmHg 92%
    19:00 +8°C° 0,2 mm 1 m/S 737 mmHg 92%
    20:00 +7°C° 0,2 mm 1 m/S 737 mmHg 92%
    21:00 +7°C° 0,2 mm 1 m/S 737 mmHg 92%
    22:00 +7°C° 1 mm 1 m/S 736 mmHg 93%
    23:00 +7°C° 1 mm 1 m/S 736 mmHg 94%

    25 November, Samstag

    Zeit Temperatur Niederschläge Wind Luftdruck Luftfeuchtigkeit
    00:00 +5°C° 1 mm 2 m/S 735 mmHg 95%
    01:00 +5°C° 1,3 mm 2 m/S 735 mmHg 95%
    02:00 +5°C° 1,3 mm 2 m/S 734 mmHg 95%
    03:00 +5°C° 1,3 mm 2 m/S 733 mmHg 96%
    04:00 +6°C° 1,2 mm 1 m/S 733 mmHg 96%
    05:00 +6°C° 1,2 mm 1 m/S 732 mmHg 96%
    06:00 +6°C° 1,2 mm 1 m/S 732 mmHg 96%
    07:00 +5°C° 1 mm 2 m/S 731 mmHg 95%
    08:00 +5°C° 1 mm 2 m/S 731 mmHg 95%
    09:00 +4°C° 1 mm 3 m/S 731 mmHg 94%
    10:00 +3°C° 0,8 mm 5 m/S 732 mmHg 91%
    11:00 +3°C° 0,8 mm 7 m/S 733 mmHg 88%
    12:00 +2°C° 0,8 mm 10 m/S 733 mmHg 84%
    13:00 +1°C° 0,2 mm 9 m/S 735 mmHg 82%
    14:00 +1°C° 0,2 mm 8 m/S 736 mmHg 80%
    15:00 0°C° 0,2 mm 7 m/S 738 mmHg 78%
    16:00 +1°C° 0 mm 6 m/S 739 mmHg 79%
    17:00 0°C° 0 mm 5 m/S 740 mmHg 81%
    18:00 -1°C° 0 mm 4 m/S 741 mmHg 83%
    19:00 -1°C° 0 mm 4 m/S 741 mmHg 84%
    20:00 -1°C° 0 mm 4 m/S 741 mmHg 85%
    21:00 -2°C° 0 mm 4 m/S 742 mmHg 86%
    22:00 -2°C° 0 mm 4 m/S 742 mmHg 86%
    23:00 -2°C° 0 mm 4 m/S 742 mmHg 87%

    26 November, Sonntag

    Zeit Temperatur Niederschläge Wind Luftdruck Luftfeuchtigkeit
    00:00 -1°C° 0 mm 3 m/S 742 mmHg 88%
    01:00 -1°C° 0 mm 3 m/S 742 mmHg 89%
    02:00 -1°C° 0 mm 3 m/S 742 mmHg 91%
    03:00 -1°C° 0 mm 3 m/S 742 mmHg 92%
    04:00 -1°C° 0 mm 3 m/S 742 mmHg 93%
    05:00 -1°C° 0 mm 3 m/S 742 mmHg 94%
    06:00 -2°C° 0 mm 3 m/S 742 mmHg 95%
    07:00 -2°C° 0 mm 4 m/S 742 mmHg 92%
    08:00 -1°C° 0 mm 4 m/S 743 mmHg 90%
    09:00 -1°C° 0 mm 5 m/S 743 mmHg 87%
    10:00 0°C° 0 mm 5 m/S 743 mmHg 82%
    11:00 +1°C° 0 mm 6 m/S 743 mmHg 78%
    12:00 +2°C° 0 mm 6 m/S 743 mmHg 73%
    13:00 +2°C° 0,1 mm 6 m/S 743 mmHg 75%
    14:00 +2°C° 0,1 mm 6 m/S 743 mmHg 78%
    15:00 +2°C° 0,1 mm 5 m/S 743 mmHg 80%
    16:00 +1°C° 0,2 mm 5 m/S 743 mmHg 83%
    17:00 +1°C° 0,2 mm 5 m/S 743 mmHg 87%
    18:00 0°C° 0,2 mm 4 m/S 744 mmHg 90%
    19:00 0°C° 0,1 mm 4 m/S 744 mmHg 91%
    20:00 0°C° 0,1 mm 4 m/S 744 mmHg 92%
    21:00 -1°C° 0,1 mm 4 m/S 744 mmHg 93%
    22:00 -1°C° 0 mm 4 m/S 744 mmHg 94%
    23:00 0°C° 0 mm 3 m/S 744 mmHg 94%

    27 November, Montag

    Zeit Temperatur Niederschläge Wind Luftdruck Luftfeuchtigkeit
    00:00 0°C° 0 mm 3 m/S 744 mmHg 95%
    01:00 0°C° 0,1 mm 3 m/S 745 mmHg 94%
    02:00 -1°C° 0,1 mm 4 m/S 745 mmHg 94%
    03:00 -1°C° 0,1 mm 4 m/S 745 mmHg 94%
    04:00 -1°C° 0,1 mm 4 m/S 745 mmHg 94%
    05:00 -1°C° 0,1 mm 4 m/S 745 mmHg 94%
    06:00 -1°C° 0,1 mm 4 m/S 745 mmHg 95%
    07:00 -1°C° 0 mm 4 m/S 745 mmHg 94%
    08:00 0°C° 0 mm 4 m/S 745 mmHg 93%
    09:00 0°C° 0 mm 4 m/S 745 mmHg 92%
    10:00 +1°C° 0 mm 5 m/S 745 mmHg 90%
    11:00 +1°C° 0 mm 5 m/S 745 mmHg 87%
    12:00 +2°C° 0 mm 6 m/S 745 mmHg 85%
    13:00 +2°C° 0,4 mm 6 m/S 744 mmHg 86%
    14:00 +2°C° 0,4 mm 6 m/S 743 mmHg 88%
    15:00 +2°C° 0,4 mm 6 m/S 743 mmHg 90%
    16:00 +2°C° 1 mm 6 m/S 742 mmHg 90%
    17:00 +2°C° 1 mm 7 m/S 741 mmHg 90%
    18:00 +2°C° 1 mm 7 m/S 741 mmHg 91%
    19:00 +2°C° 0,7 mm 7 m/S 741 mmHg 91%
    20:00 +2°C° 0,7 mm 7 m/S 740 mmHg 92%
    21:00 +3°C° 0,7 mm 6 m/S 740 mmHg 93%
    22:00 +3°C° 0,2 mm 6 m/S 740 mmHg 93%
    23:00 +3°C° 0,2 mm 6 m/S 739 mmHg 93%
    Mehr zeigen